Theta_e
310 313 314 316 315 314 313 312 312 312 312 311 311 313 312 311 311 311 311 309 307 308 310 310 310 310 310 310 309 309 309 309 308 309 309 310 311 311 311 311 311 312 313 315 314 313 313 313 313 313 313 313 313 313 313 313 313 314 313 314 314 314 314 314 314 314 313 313 314 314 314 314 314 314 314 313 313 312 312 311 310 308 307 306 304 303
309 313 314 315 314 312 313 312 311 311 311 312 312 312 311 311 311 310 311 310 307 308 311 311 310 310 309 310 309 309 309 309 309 309 309 310 310 311 311 311 312 312 312 313 312 312 312 312 313 313 313 313 314 314 314 314 314 313 313 313 313 313 313 313 313 314 313 313 314 314 314 314 314 314 314 314 314 313 312 311 310 309 307 306 305 304
312 313 313 313 311 311 314 314 312 312 312 313 312 312 312 311 311 311 311 312 309 309 312 312 310 309 309 310 309 310 310 309 310 310 310 310 310 311 312 312 312 311 312 312 311 311 312 313 313 313 314 314 314 314 314 313 313 312 313 313 313 312 312 313 313 313 313 313 313 313 314 313 314 314 314 314 314 313 312 311 310 309 308 306 305 304
315 315 312 309 308 309 313 313 312 312 312 313 312 311 312 311 312 312 313 315 312 308 311 311 309 310 310 310 310 309 309 309 310 310 310 311 311 312 312 312 311 311 312 312 312 312 313 314 313 314 314 314 314 313 313 313 312 312 312 312 312 312 312 312 312 312 312 312 312 312 312 312 312 313 313 313 313 313 312 312 311 310 309 307 305 304
315 314 309 308 310 310 311 311 311 312 311 313 313 312 312 312 312 311 312 314 312 311 312 311 311 314 313 314 315 312 309 309 309 310 310 312 312 311 311 311 311 312 312 312 312 313 313 314 313 313 313 313 313 312 312 312 312 312 311 311 311 311 312 312 312 312 311 311 311 311 311 311 311 311 312 312 313 313 312 312 312 311 310 308 306 305
313 311 308 311 313 310 311 311 313 314 312 312 314 313 312 312 312 312 312 311 311 315 314 311 313 317 316 317 320 319 318 315 311 311 313 312 311 310 311 312 312 311 311 312 312 313 313 313 313 312 312 313 312 312 312 312 312 312 311 311 310 310 311 311 311 311 311 311 311 310 311 311 311 311 312 313 313 313 313 313 312 311 310 309 308 306
312 310 309 313 314 312 312 313 315 314 311 312 316 317 313 312 312 313 312 311 314 316 312 312 316 316 314 316 319 320 320 318 315 316 314 310 309 311 312 312 311 311 312 313 313 313 313 312 312 312 312 313 313 313 313 312 312 312 311 311 310 310 310 310 310 310 310 310 310 310 310 311 311 311 313 313 313 313 313 313 312 312 311 310 309 307
313 311 309 312 314 315 313 313 315 312 312 315 315 317 317 314 314 312 311 311 314 313 311 313 315 314 314 315 317 316 315 317 317 316 314 309 309 311 312 311 310 312 313 313 313 312 312 312 312 313 313 313 313 313 313 313 313 312 312 311 311 311 310 310 310 309 310 310 310 310 310 310 310 311 311 312 311 312 312 312 312 311 311 310 309 308
311 314 313 314 315 314 315 316 315 311 313 316 311 312 314 314 313 312 312 313 312 312 313 312 313 315 316 314 315 313 314 319 318 316 316 311 310 311 311 311 310 312 313 312 312 312 312 312 313 313 313 313 313 313 313 313 313 312 312 312 311 311 311 310 310 310 309 309 309 310 310 310 310 310 310 309 310 310 310 311 311 311 310 310 309 307
310 312 311 315 317 315 317 317 316 315 314 311 308 311 314 313 313 312 313 315 315 316 315 313 314 316 318 317 316 313 314 321 320 318 316 310 309 312 312 311 311 312 313 312 312 312 312 312 313 313 313 313 313 312 313 313 313 313 312 312 311 310 310 310 310 309 309 309 309 309 309 309 309 309 309 309 309 309 309 309 309 310 310 309 309 308
308 307 307 312 314 312 316 312 308 311 309 306 309 315 316 315 313 313 314 315 316 318 316 316 316 315 318 319 318 318 317 320 321 320 319 314 311 313 314 312 312 312 312 312 313 312 312 313 313 313 312 312 312 312 312 312 312 312 312 312 311 310 310 310 309 309 309 309 309 309 309 309 308 308 308 308 308 308 308 308 309 309 309 309 308 308
308 308 309 311 309 307 312 311 305 305 304 307 315 316 315 316 314 315 317 315 316 319 317 316 314 314 318 317 316 318 317 317 316 317 321 319 313 313 315 313 312 312 312 313 313 313 312 313 312 311 311 310 311 311 311 312 312 312 312 312 312 311 310 309 309 309 309 309 309 308 308 308 308 308 307 308 308 308 308 308 308 308 308 309 308 308
314 314 311 310 308 306 311 313 310 308 306 309 314 313 313 316 316 316 318 316 316 318 315 312 312 312 315 316 314 315 314 314 312 310 315 315 311 313 316 313 311 312 313 312 313 313 312 312 311 310 310 309 310 311 311 311 312 312 312 312 312 311 310 309 308 308 308 308 308 308 308 308 308 307 307 308 307 307 307 308 308 308 308 308 309 309
320 318 310 309 310 308 311 313 313 314 311 309 312 313 315 316 317 318 318 317 316 318 313 309 312 314 314 316 317 315 313 312 310 308 310 310 309 312 313 311 311 312 312 312 312 312 311 310 309 309 308 308 309 310 311 311 312 312 312 312 312 312 310 309 308 307 307 307 307 307 307 307 307 307 307 307 307 307 307 307 307 307 307 308 308 309
320 320 316 315 314 311 310 311 316 320 313 308 313 316 315 318 320 319 321 320 318 320 314 308 313 317 317 317 316 313 310 309 308 308 308 308 309 311 311 309 310 311 311 311 310 310 309 308 307 307 307 307 308 310 310 311 311 311 311 312 311 312 311 310 309 307 306 306 306 306 306 306 306 306 306 307 307 306 306 306 306 306 306 307 307 308
316 321 320 313 310 311 311 310 314 319 315 310 313 315 314 317 320 317 319 321 318 318 315 311 315 317 315 315 313 311 310 307 306 306 307 309 310 310 310 308 309 310 308 308 308 307 307 306 306 307 306 307 308 308 309 310 310 311 311 311 311 311 311 310 310 309 307 306 305 305 305 306 305 305 306 306 306 306 306 306 305 306 306 306 306 307
316 320 318 309 307 309 309 308 309 313 315 312 312 314 314 315 318 316 317 318 316 316 317 316 317 315 314 316 314 316 319 313 310 308 305 306 310 310 309 308 308 307 306 306 306 305 305 306 306 307 307 307 307 307 307 307 308 309 310 310 310 310 311 311 310 309 308 307 306 305 305 305 305 305 305 305 306 306 306 305 305 305 305 305 305 305
317 318 316 312 311 308 303 305 308 307 310 314 315 315 313 313 314 315 316 317 316 316 318 317 318 316 317 318 315 317 321 316 316 315 308 306 309 310 308 307 306 305 305 305 304 304 305 305 305 305 305 305 305 305 305 305 306 308 309 309 309 309 310 310 310 310 309 308 307 306 304 304 304 304 304 305 305 304 304 305 305 305 305 305 305 305
316 315 316 314 313 310 305 307 311 308 306 310 314 312 312 314 314 315 316 317 317 317 318 319 319 317 316 317 316 316 317 315 315 317 314 309 307 305 304 304 303 303 303 303 302 302 302 302 302 302 302 303 303 303 303 303 304 305 306 307 308 308 309 310 310 309 309 308 308 307 306 305 303 303 303 303 303 303 303 304 304 305 305 305 305 305
314 315 317 313 311 312 311 312 315 314 308 307 309 310 311 313 313 314 315 316 317 317 318 319 319 318 318 317 315 315 315 314 313 312 310 306 303 301 300 299 298 299 299 299 299 298 298 298 299 299 300 300 300 300 300 301 303 304 305 306 306 307 308 309 309 309 308 308 308 308 307 307 305 303 302 303 303 303 303 303 303 304 304 304 305 305
315 315 315 314 312 313 314 314 317 317 314 310 311 312 311 311 313 315 314 315 316 315 317 318 318 319 322 319 316 315 312 309 308 307 304 301 299 298 296 295 295 295 296 297 297 297 298 298 298 299 299 299 299 300 301 303 305 305 305 305 305 305 306 307 308 308 307 307 307 307 307 306 306 305 303 302 302 302 302 302 303 303 303 303 303 304
317 316 315 315 315 313 315 317 317 317 316 315 313 313 313 313 315 316 316 316 315 315 316 318 317 320 324 321 316 313 307 301 301 302 300 297 296 295 294 295 295 295 296 297 298 298 299 300 300 301 301 301 302 303 303 303 304 304 303 302 302 303 304 304 305 306 306 306 306 306 306 305 305 305 304 302 302 302 302 302 302 302 302 302 303 303
312 314 314 314 315 314 314 315 315 314 315 314 313 314 315 314 314 316 317 316 315 315 316 316 317 318 320 320 313 305 299 297 297 297 296 296 295 294 294 294 295 296 297 297 297 298 298 298 299 300 301 302 302 302 301 300 300 299 299 299 299 300 300 302 303 304 304 304 304 304 305 305 305 304 304 303 302 301 301 301 301 301 301 301 302 302
310 312 313 314 314 315 316 315 312 312 313 314 313 313 313 314 314 314 314 314 314 315 315 316 317 317 319 319 308 299 297 296 295 294 294 294 294 295 295 294 295 296 296 297 297 297 297 297 298 298 298 298 298 298 298 297 296 296 296 296 297 296 297 298 300 301 303 304 304 303 304 304 304 304 303 303 302 301 301 301 300 300 300 300 300 300
310 312 313 313 314 314 315 314 312 311 313 314 314 314 312 313 314 313 312 313 313 314 315 315 316 316 319 318 308 300 297 296 294 294 293 293 294 295 295 296 296 296 296 296 296 296 296 296 296 295 295 295 294 294 294 294 295 294 294 294 294 294 295 295 296 297 299 301 302 303 303 302 302 303 303 303 302 302 301 300 300 300 300 299 299 300
309 311 312 313 314 314 313 312 312 311 311 312 313 313 312 311 312 312 312 313 314 314 314 314 314 314 315 315 310 305 301 296 294 293 293 293 293 293 294 294 295 295 295 295 295 295 295 295 295 294 293 293 293 292 293 293 293 293 293 293 293 293 294 294 294 295 295 297 299 301 302 302 302 301 301 302 302 302 302 301 300 299 299 299 299 299
309 310 311 311 312 312 312 311 311 309 309 309 310 310 310 310 310 310 311 311 312 312 311 311 312 312 311 312 310 305 300 296 294 293 292 292 293 293 293 293 293 293 293 294 294 294 294 294 294 294 293 293 293 292 292 291 291 292 292 292 292 292 293 293 293 293 293 294 295 297 299 300 301 301 301 301 301 301 301 301 301 300 299 298 298 298
308 308 309 310 309 310 310 309 307 306 305 307 307 307 308 308 308 308 308 309 309 310 310 311 311 310 310 310 306 300 296 294 293 293 293 292 292 292 292 292 292 292 292 292 292 293 293 293 293 293 293 293 292 292 292 292 292 291 291 291 291 291 291 292 292 292 292 292 293 294 295 296 298 299 300 300 300 300 300 300 301 301 300 298 297 297
305 305 306 307 307 307 307 306 304 303 303 304 305 305 305 305 306 306 306 306 308 308 309 309 308 308 307 305 299 295 294 293 293 293 293 292 292 292 292 292 292 292 292 292 292 292 292 292 292 292 291 291 291 291 291 292 292 292 292 292 291 290 290 290 290 291 291 291 292 292 293 294 295 297 298 299 300 300 300 300 300 300 300 299 297 296
302 303 304 304 303 303 303 302 302 302 302 302 302 303 303 304 304 304 303 304 305 305 306 305 305 305 303 298 295 294 293 293 293 293 293 293 293 292 292 292 292 292 292 291 291 292 291 291 291 291 290 290 290 290 290 290 290 291 291 291 291 291 290 290 289 289 290 290 290 291 291 292 293 295 296 297 298 299 300 300 300 299 299 299 299 297
301 303 303 301 300 300 300 301 301 301 301 301 300 301 301 301 301 301 301 301 302 302 303 303 304 304 298 293 293 294 293 292 292 292 292 292 293 293 293 293 292 292 291 291 291 292 291 291 290 290 290 289 289 289 289 289 289 289 289 289 289 289 289 289 289 289 289 289 289 289 290 290 291 292 293 294 296 297 298 299 300 300 299 299 299 298
300 301 300 299 298 298 299 299 299 299 299 298 298 299 299 298 299 299 299 300 301 302 302 303 303 302 296 292 293 293 292 292 292 292 291 292 292 292 293 293 292 291 291 291 290 291 291 291 290 290 289 289 288 288 288 288 288 288 288 288 288 288 288 288 288 288 288 288 288 288 288 289 290 290 291 291 293 294 295 297 298 299 299 299 298 298
299 298 298 297 297 297 297 297 297 297 296 295 295 297 298 297 298 298 299 301 302 302 303 303 301 297 294 293 293 294 293 293 292 292 291 291 291 292 293 293 291 290 291 291 290 290 291 291 290 290 289 288 288 288 288 288 288 287 288 288 288 288 288 287 287 287 288 288 288 288 287 288 288 288 289 290 290 291 293 294 296 297 298 299 298 297
298 297 296 296 296 296 296 296 296 295 293 293 297 300 300 299 300 299 300 302 301 299 299 299 297 295 295 295 294 294 293 292 291 291 291 290 291 291 292 292 290 290 290 290 290 290 290 290 290 290 289 288 288 287 287 287 287 287 287 287 287 287 287 287 287 287 287 287 287 287 287 287 287 287 287 288 289 290 291 292 294 296 297 297 298 298
296 295 295 296 296 295 296 296 294 294 294 296 299 300 298 299 301 300 299 298 296 296 296 296 295 295 295 295 294 293 292 291 291 291 291 290 290 291 291 290 289 289 290 290 290 290 290 290 290 289 289 288 288 287 287 287 287 287 287 287 287 287 287 287 286 286 286 286 286 286 286 286 286 286 286 286 287 288 289 290 292 294 296 296 297 297
294 294 294 295 295 294 295 296 295 295 295 297 298 296 295 297 298 297 297 296 295 295 295 295 295 296 295 294 293 292 292 291 292 291 291 290 291 291 290 289 289 289 289 289 290 290 290 290 290 289 289 288 288 287 287 287 287 287 287 287 286 286 286 286 286 286 286 286 286 286 286 286 286 286 286 286 286 286 287 288 289 291 293 295 296 296
294 294 294 294 294 294 294 294 295 295 295 296 297 296 294 296 297 296 297 296 295 294 294 294 295 296 295 294 293 292 292 292 292 292 291 291 292 291 290 289 289 289 289 289 289 290 290 290 289 289 289 288 288 288 287 287 286 286 286 286 286 286 286 286 286 286 286 286 286 286 286 286 286 286 286 286 286 286 286 286 287 288 290 292 294 295
293 294 294 293 293 294 294 294 295 295 296 297 298 295 293 293 295 295 296 296 295 292 290 292 295 296 294 294 293 293 292 292 292 291 290 291 291 291 290 290 289 289 289 289 289 289 289 289 289 289 288 288 288 287 287 286 286 285 286 286 286 286 286 286 286 285 285 285 286 286 286 286 286 286 286 286 286 286 286 286 286 286 287 289 290 292
292 293 294 293 294 295 295 296 296 296 297 298 298 295 292 291 293 294 294 295 292 288 287 290 293 293 292 293 293 292 292 292 291 290 290 290 290 290 290 290 289 289 289 289 289 289 289 289 289 289 288 287 287 287 287 286 285 285 285 285 285 285 285 286 285 285 285 285 285 285 285 285 285 286 286 286 286 286 285 285 285 285 286 287 288 289
292 293 294 294 294 295 295 295 295 295 296 297 297 295 292 291 291 293 294 293 290 288 289 290 290 291 291 291 292 292 292 292 291 290 290 290 290 290 290 290 290 290 290 289 289 289 289 289 289 288 287 287 287 287 286 286 285 285 285 285 284 285 285 285 285 284 284 284 284 285 285 285 285 285 285 285 285 285 285 285 285 285 285 285 286 287
292 293 293 293 294 295 294 295 295 295 296 297 296 295 292 290 291 293 294 292 289 288 289 289 289 290 291 290 291 291 292 291 290 290 290 290 291 291 290 290 290 290 290 289 289 289 289 288 288 287 287 286 286 286 286 285 284 284 284 284 284 284 285 284 283 283 283 284 284 284 284 284 285 285 285 285 285 285 285 285 285 285 285 285 285 285
290 290 290 291 292 292 293 294 293 293 294 295 294 293 290 290 293 294 293 291 289 289 290 290 289 290 290 290 291 291 290 290 289 290 290 290 290 291 290 290 290 290 290 290 289 288 288 287 287 286 286 286 285 285 285 284 283 283 283 283 283 284 284 283 283 283 283 283 284 284 284 284 284 284 284 284 285 285 285 285 285 285 285 285 284 285
291 291 292 292 291 291 291 292 292 292 292 291 291 291 291 291 294 294 291 289 290 290 290 290 290 290 290 290 290 290 289 289 289 289 289 289 290 290 290 289 289 290 290 289 289 288 287 286 286 286 285 285 285 285 284 283 282 282 282 282 283 283 282 282 282 282 282 283 283 283 283 284 284 284 284 284 284 284 285 285 285 285 285 284 284 284
292 292 292 292 292 291 291 292 293 293 292 290 290 292 292 291 291 291 289 289 290 290 290 290 290 290 290 289 289 288 288 288 289 289 289 289 289 290 290 289 289 289 288 288 287 286 285 284 284 284 284 285 284 284 283 282 281 281 282 282 282 282 280 280 280 280 281 281 282 282 283 283 283 283 284 284 284 284 284 284 284 284 284 284 284 284
292 292 292 291 292 292 292 292 292 291 290 290 290 290 291 290 290 290 290 289 289 290 290 289 289 289 289 288 288 288 288 288 288 289 289 289 289 289 289 288 287 287 286 286 286 285 284 283 282 283 283 283 283 283 282 282 281 280 281 281 281 279 279 278 278 278 278 279 280 281 281 281 282 283 283 283 283 283 283 284 284 284 284 284 284 284
290 290 290 290 291 291 290 290 290 289 289 290 290 290 290 290 290 290 290 290 289 290 289 289 288 288 288 287 287 287 287 287 287 287 287 287 287 287 287 286 286 285 285 285 284 283 282 282 281 282 282 282 282 282 281 281 279 278 279 279 278 277 276 276 276 276 276 277 277 278 278 279 280 282 282 282 282 282 282 283 283 283 283 283 284 284
289 289 289 289 290 290 289 290 289 289 290 290 290 290 290 290 290 290 290 290 289 289 289 288 287 287 287 286 286 286 286 286 285 285 285 285 285 285 285 285 284 284 283 283 282 282 281 281 281 281 280 281 282 281 280 279 278 277 276 276 275 275 274 274 274 275 275 275 275 276 276 276 277 279 280 281 281 281 282 282 281 281 282 283 283 284
289 289 290 290 289 289 289 289 289 289 290 290 290 290 290 290 290 290 290 289 289 288 288 287 287 286 286 285 285 284 285 284 283 283 283 284 284 284 283 283 282 282 282 282 281 281 280 280 279 279 278 279 280 279 277 277 276 275 274 273 273 272 272 272 272 272 273 273 273 274 274 274 274 275 276 277 278 278 279 281 281 280 281 282 282 283
289 289 290 290 289 289 289 289 289 289 289 289 290 290 290 290 290 289 289 288 288 287 287 287 286 285 285 284 283 283 283 283 282 281 281 282 282 282 281 281 281 281 281 281 280 280 279 278 277 276 275 276 276 275 274 274 274 272 271 270 270 269 269 270 270 270 271 271 271 272 272 272 272 272 272 273 274 275 276 277 278 278 279 281 282 282
289 289 289 289 289 289 289 289 289 289 289 289 289 289 289 289 289 288 288 287 287 287 286 286 286 285 283 282 282 281 281 281 281 280 280 280 280 280 280 279 280 280 280 279 278 277 276 275 274 273 273 273 273 272 271 272 272 271 269 268 267 267 267 267 268 268 269 269 270 270 270 270 270 270 270 270 271 272 273 274 275 275 276 279 281 281
289 289 289 289 289 289 289 289 289 289 289 289 289 288 288 288 288 287 287 286 286 285 284 284 284 284 283 282 281 280 280 280 280 279 279 280 280 279 279 278 278 277 277 276 275 274 274 273 272 271 271 271 271 270 270 270 270 269 267 266 266 265 265 265 265 265 266 267 267 267 268 267 268 268 269 269 269 270 270 272 273 274 275 276 278 280
Wind_Speed
9 5 3 5 9 13 12 10 12 9 4 2 2 4 6 7 9 9 10 8 1 4 8 11 18 16 14 14 13 24 27 21 25 30 34 36 40 43 40 39 41 42 45 45 40 37 34 32 31 29 27 25 24 24 24 26 27 29 30 32 34 35 36 38 39 40 42 44 45 47 48 48 48 49 50 51 51 52 51 50 50 50 50 49 49 48
5 6 6 11 13 10 5 4 7 6 5 5 5 7 7 6 11 11 11 11 2 2 6 7 16 17 14 15 15 20 20 20 25 23 26 34 39 42 41 43 44 40 40 38 33 29 28 27 26 25 23 20 19 18 18 20 21 24 27 29 31 33 36 38 39 40 41 42 43 44 45 45 47 49 51 51 51 51 51 52 53 53 52 51 51 51
3 5 9 15 11 1 3 4 3 4 5 6 4 5 6 4 9 10 8 9 2 2 6 7 14 15 12 17 18 20 18 22 29 23 25 35 36 41 43 39 34 31 33 31 27 27 28 27 24 20 17 15 14 14 15 17 18 21 23 25 28 31 34 36 38 40 40 41 42 44 44 45 47 49 50 51 51 52 53 54 55 55 54 53 53 53
5 5 12 17 9 2 3 2 4 2 4 6 5 4 7 4 5 7 5 5 3 3 6 9 15 13 11 15 15 18 18 20 30 31 32 38 39 44 43 32 27 29 33 32 30 29 27 22 18 16 15 14 14 14 15 16 17 20 22 23 25 28 30 32 35 37 38 40 43 45 46 47 48 48 49 50 51 53 56 56 56 56 56 56 56 55
7 4 6 7 6 7 8 4 2 5 6 7 6 5 9 10 10 10 5 6 6 5 4 6 12 9 5 7 5 7 8 13 23 26 31 39 38 35 33 29 26 25 25 27 26 24 20 17 16 15 15 15 15 14 14 14 15 17 19 21 23 25 27 29 31 34 37 40 43 45 47 48 50 50 50 51 52 55 57 57 57 58 57 58 57 56
8 5 4 3 4 6 6 5 6 7 7 6 6 11 15 14 11 11 8 7 5 4 4 5 7 7 1 1 3 3 3 6 10 13 25 32 19 12 19 23 19 17 18 19 19 18 16 15 14 14 14 16 16 15 14 14 14 14 16 18 21 24 26 27 29 32 35 39 42 45 47 49 51 52 53 53 53 54 54 54 55 56 57 58 58 57
4 6 4 3 4 5 5 6 7 8 6 7 5 11 14 11 8 10 7 4 1 4 3 3 2 7 4 2 6 5 3 8 9 10 20 21 10 10 18 19 16 16 17 17 16 15 14 13 14 18 19 21 21 20 20 18 17 14 13 14 17 21 24 26 29 31 34 37 40 43 46 48 50 51 51 51 52 52 50 50 52 54 56 57 58 58
3 2 2 4 5 6 4 6 7 9 5 6 4 6 8 7 7 6 3 3 3 3 3 1 3 6 9 4 4 3 3 8 13 13 14 15 15 19 19 16 13 12 15 16 15 15 15 15 19 22 23 24 26 26 27 26 24 21 17 13 13 16 20 24 27 30 33 35 37 40 42 45 47 48 49 50 50 50 49 50 51 52 54 56 58 58
3 3 4 6 4 3 6 6 7 11 6 6 2 5 5 5 4 4 4 4 2 3 4 2 4 3 9 5 1 2 3 7 13 12 11 12 17 20 15 10 8 12 15 15 16 18 17 19 21 21 22 24 26 28 30 30 30 28 25 20 16 14 16 20 24 28 31 34 36 38 40 42 44 45 47 49 49 49 49 50 51 52 54 55 57 58
1 2 5 8 5 5 8 5 7 12 6 3 5 5 4 3 3 3 3 2 2 3 5 5 5 3 9 5 3 3 2 6 9 8 8 10 12 13 12 11 12 15 14 15 18 18 18 19 19 18 21 25 28 29 31 32 32 31 29 27 24 20 17 17 21 25 28 31 35 37 39 41 42 44 46 47 48 49 49 49 50 52 53 54 56 57
1 2 2 5 6 6 4 2 3 7 4 4 6 4 5 4 4 3 1 3 2 6 5 9 10 5 6 4 4 3 3 5 5 4 7 9 9 11 12 12 15 15 14 17 19 17 16 16 16 18 23 27 29 29 30 31 32 32 31 30 28 25 22 20 19 21 25 29 33 35 38 40 41 43 44 45 47 48 48 49 49 50 51 52 53 55
1 3 1 5 8 4 5 3 1 1 2 4 3 3 3 3 4 4 4 4 1 7 4 9 10 7 7 5 1 4 5 5 5 4 6 7 11 17 14 10 14 15 15 20 20 17 15 13 15 19 24 27 27 28 29 30 31 30 30 30 29 28 26 23 21 21 22 26 30 33 36 37 39 41 43 44 45 47 47 47 48 49 50 50 51 53
1 5 4 2 5 6 5 1 2 3 3 4 2 1 2 4 3 3 2 1 3 7 4 2 3 4 9 5 3 9 13 9 6 7 9 8 14 23 23 15 12 16 19 24 23 20 17 13 16 21 24 25 24 25 27 27 28 29 28 28 27 27 26 25 23 22 21 23 26 30 33 35 36 38 41 42 44 45 45 46 47 48 48 49 49 50
3 5 2 1 3 8 9 4 3 1 3 5 4 4 2 1 2 3 2 2 4 5 4 2 1 4 7 5 6 12 13 9 3 7 13 15 18 23 26 21 11 17 20 25 26 26 21 15 18 21 20 22 23 24 26 26 27 27 27 27 27 26 25 24 24 22 22 22 23 26 30 32 34 36 38 40 42 43 44 45 46 47 47 47 47 47
4 7 4 5 3 9 11 8 6 4 4 6 5 5 4 3 3 4 3 4 6 4 3 2 2 3 3 3 5 8 8 11 10 9 9 11 13 15 17 13 12 19 23 25 26 26 22 16 17 16 13 18 23 25 26 27 26 26 26 26 26 25 24 24 24 23 22 22 22 24 26 29 32 35 36 38 40 42 44 45 46 46 45 45 45 45
4 8 6 2 2 10 9 5 6 6 2 3 3 4 2 4 4 3 4 5 3 3 3 2 3 5 4 7 9 7 6 9 10 8 8 10 10 11 11 11 21 25 25 24 23 23 20 17 18 17 17 21 25 25 25 24 24 25 25 24 24 24 24 24 24 24 23 22 21 22 24 27 30 33 35 37 38 40 42 43 45 45 44 44 44 44
3 6 3 2 1 5 5 3 3 2 2 2 3 3 3 3 5 2 5 2 1 4 6 4 6 6 5 10 8 4 5 5 6 6 6 6 8 10 12 19 25 25 24 23 24 23 20 20 22 22 22 23 24 25 24 22 21 22 23 24 24 23 23 23 24 23 23 22 22 22 23 25 28 31 33 35 37 39 40 42 43 44 44 44 44 44
4 6 3 3 3 4 2 2 2 1 3 4 3 4 1 2 3 1 2 1 1 6 6 5 11 10 6 8 4 6 9 7 7 7 4 8 12 15 19 23 23 23 24 24 25 24 22 23 23 22 22 23 23 24 24 23 22 22 22 22 22 23 23 24 24 24 23 22 22 22 23 24 27 29 32 34 36 39 41 42 42 42 44 44 45 45
2 5 4 1 3 2 2 2 2 2 2 4 2 2 1 1 2 1 2 1 4 7 4 5 11 9 6 9 7 7 10 7 5 6 7 11 15 20 24 25 24 25 26 26 26 26 25 25 25 26 26 26 26 26 27 27 26 25 24 21 21 22 23 24 25 25 24 23 23 23 23 23 24 27 30 33 36 39 41 42 42 43 43 43 44 45
1 2 4 0 2 0 3 1 2 2 1 2 1 2 1 2 3 2 2 1 3 7 6 6 8 6 5 7 7 5 5 5 6 7 9 13 18 22 23 24 27 28 28 28 29 28 28 29 30 31 31 31 31 31 31 31 31 31 29 28 27 25 23 23 24 26 26 25 25 24 24 23 21 23 27 30 34 37 40 41 43 43 44 44 44 45
2 2 3 2 1 1 1 3 5 5 3 1 1 2 2 1 1 2 1 1 2 5 5 5 5 5 3 5 7 5 5 8 9 9 10 13 19 22 22 23 25 27 29 29 29 30 31 30 31 32 32 32 32 32 32 33 34 34 33 33 32 29 25 23 24 25 26 27 26 25 24 23 21 20 22 26 30 34 36 39 41 43 43 44 45 46
0 2 3 4 4 4 6 6 7 8 6 4 4 5 5 4 2 5 5 4 3 4 4 6 8 6 4 6 7 5 9 8 10 10 9 13 17 20 22 25 25 27 29 30 30 30 29 28 28 28 28 28 30 31 32 33 32 32 33 32 31 29 27 26 25 25 27 27 26 25 24 23 23 21 21 23 26 30 33 35 38 40 42 44 45 46
3 2 3 6 7 8 11 6 4 7 6 3 3 4 5 4 5 8 10 5 4 5 6 7 9 6 3 4 2 10 11 10 14 15 11 12 17 18 20 23 25 26 27 27 28 28 28 28 27 26 26 26 27 28 29 31 31 31 32 32 31 31 29 27 26 26 27 27 27 26 24 23 23 22 21 22 24 26 29 32 35 37 40 43 45 46
2 2 2 6 5 6 9 5 3 1 2 2 3 3 5 5 5 7 6 3 3 5 5 7 7 3 3 3 6 12 12 13 17 18 15 16 20 21 21 22 24 25 26 26 26 26 26 26 26 27 27 28 28 27 28 29 30 31 31 31 32 33 32 31 29 27 27 28 29 28 26 25 23 21 21 21 21 23 24 27 30 34 37 40 43 45
1 1 2 3 4 4 6 5 3 4 2 0 3 3 2 3 5 6 3 1 2 5 7 7 5 2 2 4 6 9 9 10 12 15 17 18 20 22 22 23 23 24 26 26 27 27 26 26 27 28 29 30 31 30 30 30 30 31 31 32 33 33 33 33 32 31 30 30 30 30 29 28 26 23 22 21 21 21 21 23 26 29 33 36 39 42
1 2 2 2 5 6 6 6 2 1 2 2 3 4 4 4 5 6 4 3 4 5 6 6 5 4 6 6 7 9 7 7 8 11 14 15 17 19 20 21 21 22 24 24 25 26 26 26 27 28 29 31 32 33 33 33 32 32 32 32 33 34 33 33 33 34 33 33 32 32 31 31 30 28 25 24 23 22 21 21 22 25 29 31 34 37
1 1 4 6 7 7 7 7 2 1 3 4 4 6 6 7 6 5 5 6 7 7 6 7 10 11 11 9 6 7 7 6 6 7 9 12 14 16 18 19 19 20 21 21 23 24 24 25 26 27 28 30 31 33 34 34 34 35 34 34 34 34 34 34 34 34 34 34 33 33 32 32 32 31 30 28 26 25 24 23 23 24 25 28 31 34
1 2 5 8 9 8 9 10 5 3 4 6 8 9 10 9 9 9 9 9 8 9 8 8 10 12 13 10 4 4 6 6 5 6 7 8 10 12 15 17 18 19 20 20 21 22 23 24 24 25 26 28 29 30 31 32 33 34 35 35 35 35 35 35 34 34 34 34 33 33 33 32 31 31 31 31 29 27 25 25 25 25 24 25 29 32
2 3 5 5 7 7 7 9 6 5 6 6 8 11 12 13 13 13 13 12 10 10 10 11 15 17 13 6 1 2 4 3 5 7 8 7 8 9 12 14 16 18 19 19 20 20 21 23 24 25 26 27 28 29 29 30 31 32 33 34 35 36 36 36 35 35 34 34 34 34 33 32 31 30 30 30 30 30 28 26 25 26 26 25 27 29
2 3 4 3 5 6 8 10 10 8 9 10 10 11 13 15 16 15 15 15 14 16 16 17 20 19 8 1 2 0 3 4 6 8 9 9 8 10 11 12 14 15 16 17 18 17 18 21 23 24 26 27 27 28 28 29 30 31 32 32 33 34 34 35 35 35 34 34 34 34 34 32 32 31 30 30 30 30 30 29 26 25 26 27 27 27
2 2 4 4 5 8 11 13 13 12 12 13 12 12 14 17 17 17 17 15 15 17 16 16 17 11 1 3 1 2 3 6 7 8 10 9 9 10 12 14 15 16 16 17 17 17 17 19 21 23 25 27 28 28 28 28 29 29 30 31 32 32 32 32 33 34 34 34 33 34 34 34 33 32 31 31 30 30 30 30 29 27 25 26 28 28
2 2 4 5 5 9 11 10 9 9 9 11 13 16 19 18 16 15 14 13 11 11 10 11 10 4 2 2 2 3 4 5 6 9 12 11 10 11 13 15 17 18 18 19 19 19 19 20 21 23 25 27 28 28 28 28 28 28 29 30 30 31 31 31 31 32 33 33 33 33 34 34 34 33 33 32 31 30 29 29 29 29 28 25 25 27
2 2 3 3 5 9 8 5 3 4 6 10 11 13 16 15 13 13 11 9 6 3 4 7 4 1 2 2 2 3 4 4 6 9 13 15 15 14 14 16 18 19 19 19 20 20 21 22 22 24 25 27 27 27 28 28 29 29 29 29 29 30 30 31 31 31 31 32 32 33 33 34 34 34 33 33 33 32 30 29 28 28 29 28 25 24
5 5 5 3 4 8 6 3 4 4 9 10 5 3 6 8 9 9 6 3 2 1 1 1 1 3 2 4 4 4 5 6 10 11 12 16 17 16 15 16 19 20 20 21 22 22 23 24 25 25 26 26 26 26 27 27 28 29 30 29 30 30 30 30 30 30 31 31 31 31 32 32 33 33 34 33 33 33 31 30 29 27 27 28 27 26
5 5 4 2 3 5 3 4 4 8 8 6 2 0 2 2 2 1 1 3 2 2 4 3 2 4 4 6 8 9 11 12 13 13 14 17 17 14 14 17 19 20 22 23 24 24 25 26 26 27 27 27 26 26 26 27 27 29 30 30 30 31 31 31 31 31 31 31 31 31 31 31 32 32 33 33 33 33 32 31 30 29 28 27 27 27
6 4 2 1 2 1 1 2 6 5 4 7 6 1 1 2 4 3 1 4 5 4 5 3 5 5 6 9 11 13 15 13 12 16 19 18 15 13 12 15 18 19 21 23 25 26 27 27 28 29 29 29 29 28 28 28 27 28 30 30 30 31 31 31 31 32 32 33 33 33 32 32 32 32 32 32 33 33 33 33 32 31 30 29 28 27
7 4 3 2 3 2 2 5 6 5 8 10 7 2 2 2 2 1 1 3 5 6 4 2 4 6 8 12 16 17 14 9 8 15 21 17 14 14 12 14 16 18 20 23 25 27 28 29 30 31 31 31 32 31 31 30 29 29 30 31 31 31 31 31 31 31 32 33 34 34 34 34 34 34 33 33 33 33 33 34 34 33 32 32 31 29
8 6 5 3 3 3 3 4 5 6 6 4 4 4 3 4 3 2 1 2 4 8 7 5 6 8 8 11 16 15 8 4 3 12 21 18 14 16 16 17 17 18 19 22 25 27 29 30 31 32 33 34 35 35 33 32 31 32 33 34 34 33 33 33 32 31 32 33 33 34 34 35 35 36 36 35 34 34 34 34 34 34 33 34 34 33
5 5 5 3 3 3 3 5 5 5 4 3 4 5 4 4 3 4 2 3 3 7 10 8 9 10 9 12 15 9 3 2 4 11 24 24 17 17 19 21 23 23 22 23 25 28 30 31 32 33 34 35 37 37 37 36 35 34 36 37 37 36 37 37 35 34 35 35 34 34 34 34 35 36 37 37 36 36 36 35 35 34 34 34 35 35
2 2 3 4 5 6 6 6 5 4 3 2 5 5 4 5 4 4 5 5 5 7 12 10 12 14 14 15 12 5 5 6 8 16 28 29 24 22 22 26 31 31 29 27 27 28 29 30 32 34 35 36 38 38 39 39 38 39 40 41 40 40 41 40 38 38 38 39 38 37 36 36 36 37 37 38 38 38 38 38 37 37 36 35 35 36
1 0 2 3 5 9 9 6 4 4 4 5 7 8 8 5 2 1 6 4 4 8 12 9 11 15 16 16 12 8 10 16 20 26 32 31 30 29 27 30 35 35 33 30 28 28 30 31 34 36 37 38 39 40 40 40 40 41 43 43 44 45 45 43 41 41 42 42 43 42 41 40 39 39 39 39 40 40 40 40 40 40 40 39 38 37
0 1 2 2 2 4 6 5 4 5 5 5 7 8 8 5 1 5 5 6 10 16 18 15 15 17 18 19 17 15 19 25 27 29 31 31 31 31 30 33 36 35 34 32 30 31 32 34 37 39 41 42 42 43 44 42 42 44 44 44 46 47 46 44 44 44 45 46 47 46 46 45 43 43 43 42 43 44 44 43 43 43 43 43 42 40
3 2 2 3 3 1 2 3 5 6 3 4 3 2 4 5 3 7 11 18 24 26 24 21 21 22 21 20 20 21 25 27 27 29 30 31 31 30 31 34 34 33 33 33 34 35 35 37 40 42 44 46 46 46 46 45 45 47 47 49 50 48 45 45 46 46 47 49 49 49 49 49 48 47 46 46 46 46 47 47 47 47 46 45 44 42
2 3 3 4 3 2 3 5 5 4 3 2 3 3 6 11 18 21 20 20 25 28 25 22 23 24 21 19 20 23 25 26 27 29 30 30 31 32 33 33 32 32 33 34 37 39 39 41 43 45 48 49 49 49 48 47 47 48 50 52 52 49 46 47 47 47 49 51 51 52 51 51 51 50 49 49 49 49 49 50 50 50 49 47 46 44
5 7 5 4 4 4 5 8 6 3 5 12 13 14 20 27 32 32 26 22 24 28 26 23 22 23 21 19 20 22 23 24 26 28 28 29 31 32 33 33 32 34 36 39 41 43 43 44 45 48 50 52 52 51 51 49 48 49 51 53 51 46 46 48 48 49 50 51 53 54 54 54 53 53 52 52 51 51 52 52 51 51 51 49 47 46
8 8 4 2 5 4 7 16 15 10 17 27 29 29 31 33 34 34 30 26 26 28 26 23 21 21 20 19 19 20 21 23 24 26 27 28 30 32 33 35 36 38 40 43 44 45 45 46 47 49 52 53 54 53 53 51 49 49 51 52 49 45 45 46 48 50 51 52 53 54 54 55 56 57 57 56 55 55 55 54 53 52 51 50 49 48
7 9 6 5 8 6 7 13 14 12 20 28 29 31 33 32 33 33 30 27 27 26 24 21 18 18 19 18 18 20 22 23 23 25 27 29 32 35 36 38 40 41 43 44 45 45 46 48 49 51 52 55 57 56 55 54 52 50 49 48 47 45 44 45 47 50 52 53 55 56 56 56 58 60 61 61 59 58 57 56 54 51 51 50 50 49
4 4 5 7 9 9 10 15 16 17 23 27 27 29 30 32 34 33 28 26 24 21 19 17 17 17 18 19 20 21 24 25 25 26 29 32 35 37 38 39 41 43 44 46 46 47 48 49 51 52 52 55 58 57 56 56 55 52 49 47 45 44 44 46 48 51 54 56 58 59 59 59 59 59 59 60 60 58 57 56 53 51 51 51 49 48
4 3 4 4 6 8 11 16 18 16 17 24 28 28 28 29 30 28 24 21 19 18 18 19 19 20 20 21 21 22 25 28 27 27 30 34 36 38 39 40 42 44 46 47 48 49 50 50 51 51 53 56 57 57 57 58 58 55 51 49 47 46 47 51 54 56 59 61 62 63 63 60 58 57 55 55 55 54 53 53 50 49 50 52 51 50
5 6 5 2 5 8 10 13 14 8 8 17 22 21 20 21 21 20 19 18 18 19 21 22 24 23 21 21 21 22 25 29 29 29 31 35 37 39 39 41 43 46 48 49 50 51 52 52 51 52 54 57 58 57 59 60 61 59 56 53 52 51 52 55 57 60 62 63 63 63 61 59 57 56 53 52 51 51 52 52 50 49 49 51 52 51
11 11 9 6 8 12 16 21 19 11 10 18 21 18 16 17 17 17 18 19 20 21 22 23 24 25 24 24 24 24 26 30 31 31 34 37 39 40 41 43 45 47 49 50 50 52 53 54 54 54 55 57 57 57 58 60 60 58 56 54 52 51 52 53 54 56 59 60 59 58 57 56 56 55 54 53 52 51 52 54 55 55 53 52 52 51
Wind_Direction
168 165 159 187 216 223 222 211 222 249 299 306 252 260 263 272 271 262 270 270 234 287 265 256 271 277 276 274 271 276 280 274 268 271 274 278 280 280 280 280 279 279 283 290 293 295 298 300 302 304 304 302 298 293 287 282 277 274 270 265 261 259 256 253 250 246 243 241 239 238 238 237 237 237 237 237 237 236 237 237 236 236 235 234 233 232
167 195 208 214 223 223 225 221 231 263 298 273 257 277 271 259 272 271 274 278 244 252 260 249 273 278 275 277 272 268 269 263 259 262 271 275 277 279 280 279 280 282 287 292 297 302 306 307 311 313 313 311 307 301 291 284 279 274 271 267 264 261 257 255 253 251 247 245 243 242 242 240 238 236 236 237 237 237 236 236 236 235 234 233 233 232
206 222 228 230 235 278 30 67 109 227 243 252 247 277 277 259 279 274 262 282 305 220 272 280 278 277 270 267 261 256 251 257 265 267 268 270 273 276 276 278 285 291 293 298 308 312 314 319 326 329 331 332 328 319 304 293 282 273 268 264 263 261 259 257 255 253 251 248 247 246 245 243 241 239 239 238 238 237 236 235 235 234 233 233 232 232
232 234 233 235 233 227 274 75 85 292 250 225 221 259 273 254 272 270 257 304 325 242 274 293 286 281 265 258 256 258 255 260 267 267 265 264 263 266 271 281 291 295 298 306 314 317 325 339 350 359 2 356 349 342 326 310 293 280 274 269 265 263 262 260 257 255 253 251 248 246 245 243 242 242 241 240 238 237 237 236 235 234 233 232 232 231
239 230 221 219 195 198 234 236 196 267 262 227 208 225 258 253 248 253 274 328 324 284 295 313 297 290 258 249 258 276 267 253 259 265 265 261 258 264 276 285 292 302 312 318 322 330 351 9 15 16 12 4 359 355 345 329 311 294 282 274 269 266 264 262 260 257 254 251 248 245 243 242 240 240 239 238 238 236 235 235 235 235 233 232 232 231
253 248 222 157 162 180 202 234 218 221 252 264 214 212 238 252 255 260 288 339 345 307 338 7 319 301 318 234 273 307 314 260 252 253 256 258 263 285 288 292 309 331 335 335 341 358 17 18 18 26 26 23 20 13 5 353 337 316 292 277 269 266 263 262 260 258 255 252 250 246 244 242 240 238 238 238 237 236 236 236 236 235 235 234 233 232
254 258 244 156 139 134 162 240 223 196 236 283 236 210 228 245 256 264 284 325 300 260 295 45 342 287 290 226 257 267 261 269 261 247 256 265 294 302 288 300 324 336 344 359 11 24 32 27 36 48 47 42 37 32 26 17 7 353 322 290 273 268 266 264 261 258 255 253 252 250 249 248 246 245 245 243 242 241 240 239 238 238 237 235 234 233
204 258 41 94 114 126 169 243 218 173 190 267 244 190 202 225 238 239 237 234 240 278 297 151 150 277 283 252 253 235 188 256 262 259 271 285 296 291 293 308 321 342 8 26 36 43 49 52 55 54 49 42 37 32 29 25 21 16 3 337 301 281 272 268 265 261 259 257 255 254 253 252 252 252 252 250 248 246 244 242 241 240 238 237 235 234
166 189 181 137 115 161 202 225 184 159 185 253 203 132 163 195 206 173 176 217 264 345 299 219 149 255 278 267 25 65 169 243 260 264 277 288 295 304 318 331 351 27 39 42 47 55 63 63 53 43 38 34 30 26 24 23 21 19 16 7 350 322 295 279 272 267 264 262 259 257 256 255 255 254 252 251 250 249 247 245 243 241 240 238 236 235
172 185 186 150 141 211 216 218 172 164 196 222 125 88 74 80 76 101 154 151 56 311 255 199 172 235 280 274 98 69 212 233 257 270 277 284 301 332 5 31 43 50 53 50 52 60 64 56 43 33 30 26 23 23 22 22 22 20 18 13 7 356 335 309 288 275 269 266 262 260 259 257 256 254 252 251 251 250 248 247 245 244 242 240 238 236
243 73 123 174 206 213 169 117 171 171 173 127 107 56 37 39 38 54 35 80 60 286 237 187 186 192 283 283 143 179 225 218 247 285 294 304 332 356 15 34 40 50 58 53 54 60 57 44 34 30 26 22 21 23 23 22 23 21 20 17 12 6 355 340 319 296 281 271 266 264 263 261 259 256 254 253 252 251 250 248 247 246 245 243 241 239
165 126 209 232 225 190 109 79 349 101 111 97 86 41 11 335 13 29 352 45 159 270 248 191 185 186 238 263 189 253 260 232 225 266 299 321 329 325 328 355 28 48 55 50 51 52 49 38 28 24 21 21 22 23 23 22 22 20 18 16 14 10 3 354 341 324 304 284 273 268 265 264 263 259 257 257 256 255 254 253 251 249 247 246 243 241
247 210 235 261 222 182 136 103 332 19 70 92 101 83 342 317 348 353 322 67 218 261 283 219 186 222 246 262 281 271 274 262 223 231 258 272 293 297 296 311 15 51 49 46 46 39 38 34 24 21 17 18 22 23 23 22 20 17 13 11 10 8 4 358 349 338 323 302 286 274 268 266 265 262 261 261 259 259 258 257 255 253 251 248 246 243
286 269 214 167 242 187 162 173 232 246 150 150 154 158 162 199 269 278 257 261 268 277 312 312 246 277 281 284 245 246 269 294 286 243 252 260 274 284 288 301 7 56 46 40 37 30 32 29 21 21 15 13 19 20 18 16 14 11 8 5 4 3 1 358 352 342 332 319 303 286 275 270 266 264 263 263 262 261 260 259 257 256 256 254 252 249
254 289 211 182 207 173 177 197 185 139 150 181 162 142 159 175 209 242 226 255 280 290 308 300 197 234 260 277 242 234 268 299 300 284 276 277 280 289 293 313 29 45 34 30 29 31 36 30 21 24 20 15 18 16 10 8 6 5 5 3 0 360 358 355 352 346 337 328 314 297 285 277 270 267 265 265 264 263 261 260 258 258 258 258 257 255
219 266 241 228 126 156 177 203 148 114 138 201 129 121 204 193 182 230 234 228 253 291 284 237 227 232 231 270 272 268 281 292 297 292 281 283 290 298 315 17 34 28 26 25 28 38 42 34 26 28 27 20 17 16 12 7 2 0 2 0 357 355 355 354 351 348 343 333 320 307 296 286 277 271 267 266 265 264 263 262 261 260 260 259 259 257
232 264 263 34 60 177 186 176 135 139 193 160 125 177 230 158 145 223 262 234 150 254 253 226 254 274 291 287 288 341 340 333 352 331 282 302 331 331 356 29 26 20 28 30 33 41 38 33 30 27 24 19 16 18 20 18 11 5 2 360 358 355 352 352 348 346 344 337 327 316 305 295 286 279 274 271 268 266 265 263 263 262 261 259 258 257
247 270 257 145 204 238 190 127 28 6 134 129 172 219 233 95 120 167 257 321 183 245 251 239 259 276 291 284 307 2 330 331 357 345 349 17 14 11 20 27 22 23 30 29 32 35 32 30 28 26 25 24 24 25 25 26 21 14 8 2 359 357 353 350 346 343 342 339 334 326 315 303 292 286 281 276 272 267 265 264 264 263 262 261 259 258
276 272 275 176 198 227 88 97 339 327 148 148 206 243 107 180 237 185 172 219 235 247 251 221 245 259 251 260 286 316 308 320 344 340 1 16 18 23 26 25 24 25 26 25 28 29 30 32 29 29 29 26 26 25 26 27 23 21 20 13 7 1 355 349 343 340 339 337 335 333 327 316 303 293 286 280 275 270 267 266 266 265 264 263 262 260
357 260 275 321 173 68 42 112 197 236 254 67 355 325 41 187 225 215 184 195 239 251 258 228 231 243 235 259 292 301 297 327 352 7 20 24 28 31 29 25 24 25 25 27 29 29 31 33 31 30 28 26 26 26 25 23 18 16 14 9 7 3 356 348 340 338 338 336 333 331 331 326 316 304 294 286 279 274 272 270 269 267 265 264 263 262
24 265 268 271 252 302 285 208 187 190 190 137 215 248 240 197 243 284 237 167 222 251 264 254 240 246 256 280 294 315 13 21 19 32 45 41 35 32 29 27 24 24 26 28 29 30 30 30 28 27 25 23 21 16 13 8 2 359 358 360 2 2 358 351 343 338 336 335 333 330 328 325 319 310 300 292 285 280 276 273 271 269 267 266 264 262
179 250 253 261 267 256 248 226 190 189 187 181 197 202 212 220 248 281 260 203 197 227 235 254 259 248 231 257 285 1 49 44 29 40 57 49 37 31 29 29 27 26 28 27 27 26 24 22 20 17 14 10 6 2 1 1 359 358 359 2 4 4 3 360 354 348 342 338 335 331 327 323 319 313 303 295 289 286 282 278 275 272 269 267 265 264
151 164 236 250 250 258 270 266 183 201 210 208 222 203 213 221 216 248 260 249 233 231 223 246 261 253 230 255 350 53 63 54 39 40 45 38 32 29 27 28 29 29 28 27 26 24 23 22 18 13 9 6 4 3 3 4 6 6 5 5 4 6 7 5 1 356 351 347 343 338 331 326 322 317 309 301 296 292 289 286 282 277 273 270 268 266
111 134 241 257 264 280 290 313 46 53 224 228 259 229 217 236 238 244 256 272 265 247 241 253 255 262 318 335 69 79 76 62 49 43 39 30 26 25 23 23 25 26 26 25 24 24 22 20 18 16 15 13 11 10 8 7 7 7 7 5 4 5 7 7 5 1 356 353 351 348 343 337 329 320 314 308 304 300 297 294 289 283 279 275 271 268
16 245 247 270 286 296 293 300 356 24 35 247 267 266 262 300 307 300 285 263 250 227 229 252 253 213 287 321 48 68 74 71 56 47 45 38 29 27 25 23 20 19 19 20 19 20 19 18 17 17 16 14 12 11 9 7 6 5 5 4 3 3 3 4 5 4 1 357 354 352 351 349 343 332 321 312 306 303 301 298 293 288 284 280 276 273
39 269 255 263 262 261 277 283 286 359 330 294 290 312 337 327 298 301 293 266 262 236 224 256 280 270 271 302 360 18 32 60 56 46 47 42 35 34 32 28 23 18 16 13 12 12 12 13 13 12 11 10 9 7 6 5 4 3 2 2 1 360 359 359 0 1 2 0 357 355 353 352 350 346 336 322 311 304 299 296 294 291 288 284 281 277
137 253 232 242 256 259 275 281 288 0 281 274 298 303 302 292 279 285 276 261 279 286 269 268 279 283 289 305 344 5 2 17 31 32 38 38 35 34 34 30 25 21 17 14 10 8 6 6 5 3 3 2 2 2 1 1 2 2 1 1 360 358 357 356 356 357 358 358 357 356 355 353 352 350 346 339 327 313 302 295 293 291 290 289 285 280
161 257 234 241 257 260 273 283 305 340 288 279 296 291 286 288 283 275 269 271 290 292 276 277 285 286 291 301 330 16 358 352 359 360 6 17 23 28 27 24 20 17 15 12 9 7 4 3 0 359 358 356 356 355 355 356 357 357 358 359 359 359 357 355 355 354 354 355 354 354 354 354 353 350 349 347 342 333 319 305 294 289 288 289 287 284
149 266 248 246 265 268 281 293 295 294 281 276 281 282 283 283 275 269 268 271 274 270 272 286 286 280 284 294 338 46 3 326 323 333 331 336 358 12 12 11 12 9 7 5 3 1 359 357 355 355 354 354 354 354 353 352 351 351 352 352 353 354 354 354 354 353 352 351 351 351 350 350 349 349 348 346 345 344 338 326 309 295 287 284 286 287
176 254 257 260 290 290 287 288 287 287 284 278 270 268 270 270 269 269 269 266 261 259 266 272 272 274 283 118 156 108 354 322 312 320 318 312 327 349 353 353 355 355 355 355 353 352 352 350 348 348 349 350 352 352 353 352 350 349 348 347 348 348 348 349 350 351 351 350 349 349 347 346 345 345 345 345 345 345 344 340 331 313 295 286 283 285
252 272 312 332 314 291 280 279 282 284 283 281 278 270 263 262 265 267 268 267 263 263 265 265 267 272 237 122 249 288 324 322 311 312 315 307 304 322 331 333 336 339 341 342 341 340 342 343 343 344 345 347 348 349 350 349 348 346 345 345 345 345 345 344 344 346 347 348 348 346 345 344 344 344 344 344 344 345 345 344 341 333 316 297 286 283
308 304 322 326 292 276 277 280 286 296 295 287 277 266 261 260 259 259 261 265 267 270 276 275 274 273 138 155 271 274 282 306 303 302 311 308 294 297 305 314 324 328 330 333 335 334 335 336 338 340 341 343 343 344 345 344 343 341 340 339 339 340 340 340 340 340 340 342 343 344 344 343 342 343 343 343 344 343 344 343 342 341 335 320 301 287
214 248 276 277 269 272 281 296 344 355 313 282 264 254 254 255 259 262 262 266 271 263 272 279 274 166 184 216 254 276 271 277 281 292 306 307 297 292 293 302 315 320 321 325 328 330 331 331 332 334 337 338 338 339 340 339 337 335 334 333 333 333 333 334 335 336 335 336 337 338 340 341 341 341 341 342 343 342 342 342 341 342 341 336 326 307
211 225 235 216 242 268 286 10 26 314 275 268 260 232 242 248 259 267 257 237 248 154 150 300 117 137 187 203 214 243 242 254 273 280 293 299 293 288 291 299 311 318 319 320 323 325 328 327 326 327 329 331 331 332 333 333 330 328 327 328 328 327 327 328 329 331 331 332 332 333 334 336 337 339 339 338 339 339 340 339 338 339 339 338 338 331
222 215 223 196 209 257 314 22 310 265 250 263 299 117 227 211 182 215 187 176 198 135 107 101 187 202 216 219 230 245 248 260 274 274 284 295 286 277 290 304 313 319 320 320 320 320 321 322 322 322 323 325 325 324 324 325 323 320 320 321 322 322 323 323 324 326 326 326 327 328 329 331 332 334 336 337 336 336 336 335 335 335 334 333 336 336
224 208 206 207 206 237 46 198 240 258 288 295 287 240 116 103 111 94 293 227 209 173 141 165 221 226 240 250 260 267 267 275 280 273 281 287 268 254 277 301 313 319 318 317 317 315 316 317 316 317 318 318 320 320 320 319 316 313 312 314 315 316 317 317 318 320 321 320 321 322 323 325 327 328 331 333 334 334 333 332 331 332 330 329 329 330
209 197 183 211 227 218 211 223 241 293 308 293 279 241 134 153 157 127 275 241 206 189 183 201 234 236 238 251 263 268 271 287 290 279 286 282 246 238 265 290 306 316 316 317 315 311 311 312 313 314 313 313 314 316 317 317 313 309 307 308 309 310 309 310 312 314 314 314 314 315 317 319 321 322 324 326 329 331 331 330 329 329 328 326 325 325
202 203 194 213 241 211 219 254 261 273 275 262 251 255 232 214 207 133 97 260 201 197 210 212 233 245 233 241 256 260 267 306 282 280 296 292 253 247 266 279 292 304 310 315 314 310 308 308 308 309 309 309 311 312 315 316 312 309 306 306 306 306 305 305 306 308 308 307 307 309 311 313 315 316 318 320 321 324 325 326 327 326 325 323 321 320
184 209 200 208 254 237 236 256 253 255 260 210 210 238 231 214 183 101 23 306 185 213 240 223 219 243 242 241 250 242 228 287 249 275 297 298 279 266 273 281 288 292 297 307 311 310 307 303 301 303 304 305 307 309 312 313 311 309 306 305 305 303 302 303 303 304 304 303 303 303 305 307 309 310 312 314 315 317 318 320 322 323 322 320 317 316
125 200 207 209 238 244 245 252 251 259 272 230 227 235 209 176 125 66 317 282 175 225 260 233 219 245 254 250 249 210 181 238 259 284 297 298 289 281 283 291 294 290 290 299 307 307 303 297 294 296 298 300 303 304 307 308 308 306 304 304 304 302 302 303 304 303 302 301 301 301 301 303 304 305 307 308 309 310 311 313 317 318 318 317 315 313
43 257 240 226 233 240 244 253 264 263 257 245 235 216 183 145 90 255 257 241 197 254 282 266 244 264 271 258 243 218 238 266 280 290 295 294 287 285 290 297 298 291 286 292 300 302 299 295 294 295 297 300 302 303 304 305 305 303 302 302 301 300 302 305 304 302 301 300 299 300 300 301 301 302 303 304 304 305 306 308 310 313 314 314 312 310
202 41 302 254 232 244 244 248 274 276 249 223 226 207 165 136 186 223 237 308 309 302 310 307 290 294 293 272 253 252 273 288 295 296 298 296 291 291 295 299 298 292 286 287 293 296 297 297 297 298 299 301 302 303 305 306 304 302 301 299 298 299 301 303 302 300 299 299 298 298 299 299 299 299 300 301 302 303 303 304 306 308 310 311 309 308
186 164 252 225 202 243 244 234 261 273 231 161 185 214 164 168 247 293 308 314 311 308 309 308 304 306 299 277 269 279 291 298 303 304 304 301 294 292 293 295 295 291 287 288 291 295 299 301 301 300 300 301 302 303 305 305 303 302 300 299 299 301 301 298 297 297 296 296 296 296 296 296 296 297 297 297 298 300 300 301 303 304 305 306 307 305
196 184 229 233 208 204 224 228 224 216 205 161 159 222 261 280 297 307 307 304 305 304 302 302 304 305 297 284 284 293 296 300 304 305 302 297 292 290 290 291 291 290 291 293 296 299 304 306 304 303 302 301 302 303 304 303 302 300 299 299 301 301 299 296 295 294 293 293 293 293 293 293 293 293 294 294 295 296 296 297 299 300 301 302 303 302
210 198 212 240 229 185 205 244 241 206 278 286 276 270 281 291 296 299 298 294 295 297 299 302 303 301 297 292 292 295 296 298 300 298 293 290 289 289 290 291 293 295 298 299 300 303 306 307 305 304 303 302 303 303 303 302 300 297 297 299 300 298 296 295 295 293 292 291 291 290 291 291 290 290 290 291 292 293 293 294 295 296 298 299 299 298
231 222 210 258 265 253 251 258 261 267 277 279 279 279 283 287 290 292 293 291 292 296 300 301 298 296 296 296 297 297 296 295 294 291 289 289 289 290 292 295 297 300 302 302 303 305 306 306 305 303 303 302 303 303 301 299 298 296 296 297 297 296 295 295 293 292 291 290 289 289 289 289 289 289 289 289 289 290 290 291 292 293 294 294 294 295
252 236 227 248 262 265 263 260 257 259 265 270 274 277 279 283 285 286 288 290 292 295 296 294 293 294 296 298 298 297 295 294 294 294 295 296 295 295 298 300 302 303 304 305 306 307 306 304 303 302 301 301 301 301 299 298 297 296 296 296 296 296 296 293 291 290 288 287 287 287 287 287 287 288 288 288 288 288 288 288 289 289 289 289 290 290
253 219 213 235 245 243 255 265 266 264 266 268 270 272 275 279 282 283 285 287 288 289 290 291 294 295 297 299 299 297 297 298 300 302 303 301 300 301 303 305 306 306 307 307 306 305 303 302 301 301 300 299 299 299 298 297 296 295 295 295 295 294 293 289 287 286 285 285 285 285 285 285 286 286 286 287 287 287 286 286 285 284 284 285 285 285
212 213 204 214 249 255 261 269 272 273 273 270 268 269 272 275 277 279 280 280 279 282 286 290 295 298 300 302 303 303 302 302 305 308 307 304 304 306 307 308 308 307 306 306 305 304 303 302 301 301 299 298 297 297 296 294 293 293 293 293 293 292 290 287 286 285 284 284 284 284 284 285 285 285 285 285 285 285 283 282 281 279 279 280 281 280
203 243 243 221 265 265 258 262 267 268 270 271 274 275 272 270 270 271 274 278 282 288 292 294 298 300 302 305 307 308 307 307 309 311 308 307 308 308 308 308 307 306 306 305 304 303 302 301 300 299 297 297 297 296 295 294 294 294 294 294 294 293 291 289 288 287 285 285 284 284 284 285 284 284 284 283 282 282 281 280 278 275 274 275 277 277
218 238 242 235 250 258 261 267 267 261 261 274 281 282 272 266 267 269 275 283 289 293 297 300 301 303 306 309 312 312 311 311 312 311 309 308 308 308 308 308 307 306 306 305 304 303 303 302 302 301 300 301 301 300 300 299 298 299 299 299 299 298 295 293 291 289 287 286 285 285 285 284 284 283 283 282 281 281 280 280 279 277 275 274 274 274